Location: 433rd Scouts Home(Lloyd Manor Park, Etobicoke )
(43.6722°N, 79.5542°W)
Time: 11:18:30
(UTC-04:00)

Nauka - Pass Details

Date: 02 October 2021
Orbit: 417 x 423 km, 51.6° (Epoch: 26 October)

Event Time Altitude Azimuth Distance (km) Brightness Sun altitude
Rises 21:19:15 0° 296° (WNW) 2,366 ? -26.2°
Reaches altitude 10° 21:21:29 10° 286° (WNW) 1,499 ? -26.5°
Enters shadow 21:23:07 22° 265° (W) 962 ? -26.8°
